Location: Baia de Cri?
(46.1667°N, 22.7167°E)
Time: 21:17:14
(UTC+00:00)

ARIANE 5 R/B - Pass Details

Date: 15 January 2026
Orbit: 746 x 793 km, 98.8° (Epoch: 10 February)

Event Time Altitude Azimuth Distance (km) Brightness Sun altitude
Rises 05:01:11 0° 17° (NNE) 3,270 5.7 -11.3°
Reaches altitude 10° 05:03:33 10° 20° (NNE) 2,330 5.0 -10.9°
Maximum altitude 05:08:39 64° 102° (ESE) 851 3.1 -10.1°
Drops below altitude 10° 05:13:38 10° 184° (S) 2,283 5.2 -9.3°
Sets 05:15:56 0° 187° (S) 3,197 5.9 -8.9°
